Tracking 19146 objects as of 23-Apr-2018
HD Live streaming from Space Station
objects crossing your sky now

SL-24 R/B

Track SL-24 R/B now!
10-day predictions


NORAD ID: 40047
Int'l Code: 2014-033AP
Perigee: 615.4 km
Apogee: 1,460.2 km
Inclination: 97.9 °
Period: 105.8 minutes
Semi major axis: 7408 km
RCS: Unknown
Launch date: June 19, 2014
Source: Commonwealth of Independent States (former USSR) (CIS)
Launch site: Orenburg, Russia (OREN)

Note: This is a ROCKET BODY
aabbcc
Your satellite tracking list
Your tracking list is empty




NASA's NSSDC Master Catalog

Two Line Element Set (TLE):
1 40047U 14033AP  18112.62303704 -.00000018  00000-0  80770-5 0  9991
2 40047  97.8537 125.4111 0570116  18.6735 343.4426 13.61387723190862
Source of the keplerian elements: AFSPC